Regional Weather Roundup
Issued by NWS

Home | Current Version | Previous Version | Graphics & Text | Print | Product List | Glossary On
Versions: 1 2 3 4 5 6 7 8 9 10 11 12 13 14 15 16 17 18 19 20 21 22 23 24 25 26 27 28 29 30 31 32 33 34 35 36 37 38 39 40 41 42 43 44 45 46 47 48 49 50
000
ASUS43 KLSX 061559
RWRMO

WEATHER SUMMARY FOR MISSOURI
NATIONAL WEATHER SERVICE SPRINGFIELD MO
1000 AM CST FRI MAR 06 2015

NOTE: "FAIR" INDICATES FEW OR NO CLOUDS BELOW 12,000 FEET WITH NO
       SIGNIFICANT WEATHER AND/OR OBSTRUCTIONS TO VISIBILITY.
       CURRENT SKY AND/OR WEATHER CONDITIONS ARE NOT AVAILABLE FOR
       CHILLICOTHE AND FARMINGTON.

MOZ001>031-035>038-043-044-053-054-061700-
...NORTHERN AND WESTERN MISSOURI...

CITY           SKY/WX    TMP DP  RH WIND       PRES   REMARKS
KANSAS CTY INT SUNNY     41  22  46 SW13      30.30S
KANSAS C DTWN  SUNNY     43  21  41 SW13      30.33S
LEE`S SUMMIT   SUNNY     40  21  46 SW14G25   30.33S
ST JOSEPH      SUNNY     41  23  48 SW9       30.30S
CHILLICOTHE      N/A     40  22  48 SW12G18   30.29F
KIRKSVILLE     MOSUNNY   34  19  54 SW17G25   30.27F WCI  23

$$
MOZ066>068-077>081-088>096-101>105-061700-
...SOUTHWEST MISSOURI...

CITY           SKY/WX    TMP DP  RH WIND       PRES   REMARKS
SPRINGFIELD    SUNNY     38  20  48 SW17G23   30.44S WCI  28
JOPLIN         SUNNY     40  21  46 SW21G26   30.45S

$$
MOZ032>034-039>042-045>050-055>058-069>072-061700-
...CENTRAL MISSOURI...

CITY           SKY/WX    TMP DP  RH WIND       PRES   REMARKS
COLUMBIA       SUNNY     37  20  50 S18       30.36F WCI  27
JEFFERSON CITY SUNNY     37  17  44 SW13      30.40F WCI  29
ROLLA          SUNNY     33  17  51 S16G24    30.40F WCI  23
SEDALIA        SUNNY     39  22  50 SW23G31   30.34F WCI  28
OSAGE BEACH    SUNNY     39  19  45 SW15      30.40F

$$
MOZ051-052-059>065-061700-
...EAST CENTRAL MISSOURI...

CITY           SKY/WX    TMP DP  RH WIND       PRES   REMARKS
ST LOUIS INTL  MOSUNNY   29  12  49 SE9       30.46F WCI  20
SPIRIT OF STL  SUNNY     30  13  49 S7        30.45F WCI  23
ST CHARLES     SUNNY     27  15  61 S12       30.46F WCI  17

$$
MOZ072>076-082>087-097>100-106>115-061700-
...SOUTH CENTRAL AND SOUTHEAST MISSOURI...

CITY           SKY/WX    TMP DP  RH WIND       PRES   REMARKS
CAPE GIRARDEAU FLURRIES  16   9  74 SW3       30.61F
FARMINGTON     SUNNY     25  12  58 S12       30.52F WCI  14
POPLAR BLUFF   SUNNY     20   9  62 S10       30.60F WCI   9
WEST PLAINS    SUNNY     25  11  55 S6        30.51S WCI  18

$$


USA.gov is the U.S. government's official web portal to all federal, state and local government web resources and services.